Retour au catalogue

DMSP 5D-2 F15

USA 147

ActifMétéoSSO
NORAD 25991·PAYLOAD·🇺🇸 United States

Lancé Dec 12, 1999 depuis Vandenberg Space Force Base

Loading…

Prochains Passages (prochaines 24 heures)

TLE

FraisSource: Space-Track

Époque: Sep 14, 2026, 22:23 UTC

1 25991U 99067A   26257.93273762  .00000060  00000-0  51889-4 0  9999
2 25991  98.9890 297.5787 0011036 106.3430 309.2972 14.17586941383365

Suivez DMSP 5D-2 F15 en temps réel avec AllMySat

Download on the App Store